Overview Statistics Trail Chart Weather Telemetry Raw packets
 

This is the latest recevied weather packets stored in our database for station/object KB1RMA-4. If no packets are shown the sender has not sent any weather packets the latest 10 day(s).

<< 92 93 94 95 96 97 98 >>
Time Temp. Humidity Pressure Rain* Wind** Luminosity Snow
1787949512 27.78° C 67% 1014.2 hPa 0 mm - 326 W/m² -
1787949208 27.78° C 67% 1014.2 hPa 0 mm - 347 W/m² -
1787948903 27.78° C 67% 1014.3 hPa 0 mm - 352 W/m² -
1787948599 27.78° C 67% 1014.3 hPa 0 mm - 361 W/m² -
1787948294 27.78° C 67% 1014.4 hPa 0 mm - 378 W/m² -
1787947988 28.33° C 66% 1014.2 hPa 0 mm - 157 W/m² -
1787947687 27.78° C 65% 1014.2 hPa 0 mm - 224 W/m² -
1787947387 27.78° C 66% 1014.4 hPa 0 mm - 406 W/m² -
1787947086 28.33° C 65% 1014.3 hPa 0 mm - 191 W/m² -
1787946786 28.89° C 62% 1014.5 hPa 0 mm - 157 W/m² -
1787946484 28.89° C 62% 1014.4 hPa 0 mm - 161 W/m² -
1787946179 28.89° C 62% 1014.4 hPa 0 mm - 396 W/m² -
1787945874 28.33° C 63% 1014.6 hPa 0 mm - 513 W/m² -
1787945570 28.33° C 65% 1014.5 hPa 0 mm - 525 W/m² -
1787945269 27.78° C 64% 1014.6 hPa 0 mm - 534 W/m² -
1787944969 28.33° C 64% 1014.6 hPa 0 mm - 517 W/m² -
1787944667 29.44° C 58% 1014.8 hPa 0 mm - 211 W/m² -
1787944363 28.33° C 61% 1014.8 hPa 0 mm - 526 W/m² -
1787944058 28.33° C 62% 1014.9 hPa 0 mm - 280 W/m² -
1787943753 28.33° C 62% 1014.8 hPa 0 mm - 209 W/m² -
1787943448 28.89° C 62% 1014.9 hPa 0 mm - 235 W/m² -
1787943144 28.89° C 61% 1014.8 hPa 0 mm - 309 W/m² -
1787942838 28.33° C 61% 1014.9 hPa 0 mm - 309 W/m² -
1787942534 28.33° C 61% 1015 hPa 0 mm - 222 W/m² -
1787942229 28.89° C 60% 1015 hPa 0 mm - 290 W/m² -

* Rain latest hour (hover to see other rain measurements)
** Current wind speed in m/s (hover to see current wind gust speed)